Location: Riverton
(43.0250°N, 108.3790°W)
Time: 02:32:36
(UTC-06:00)

Amateur Radio Satellites - All Passes

Search period start: 28 May 2017 02:02
Search period end: 29 May 2017 02:02
Location: Riverton, 43.0250°N, 108.3790°W

Satellite Date Start Highest point End Downlink Frequencies (MHz)
Time Altitude Azimuth
Oscar 19 28 May 02:03:44 02:08:13 29° 95° (E) 02:12:41 437.125/150
EO-79 28 May 02:04:14 02:07:46 26° 292° (WNW) 02:11:18 145.935-145.965
50 SAT 28 May 02:07:22 02:09:39 17° 266° (W) 02:11:56 437.505
BEESAT 28 May 02:08:43 02:11:51 18° 62° (ENE) 02:15:00 436.000
DX 1 28 May 02:10:53 02:14:46 31° 263° (W) 02:18:40 434.975-435.025
Tancredo 1 28 May 02:16:43 02:19:48 79° 34° (NNE) 02:22:51 437.200
NANOSAT C BR1 28 May 02:50:47 02:51:36 10° 300° (WNW) 02:52:25 145.865
ISS 28 May 03:03:16 03:06:31 61° 217° (SW) 03:09:45 437.550
AO-7 28 May 03:08:03 03:12:09 14° 87° (E) 03:16:14 .
BUGSAT 1 28 May 03:10:25 03:13:22 19° 294° (WNW) 03:16:21 437.445
ITUPSAT 1 28 May 03:11:56 03:16:40 68° 73° (ENE) 03:21:26 437.325
MOZHAYETS 4 28 May 03:12:55 03:17:10 38° 70° (ENE) 03:21:27
Gurwin Techsat 1B 28 May 03:32:52 03:38:11 71° 287° (WNW) 03:43:28 435.225
RS-15 28 May 03:36:27 03:48:37 73° 308° (NW) 04:01:03 29.354- 29.394
Oscar 19 28 May 03:42:53 03:47:34 35° 293° (WNW) 03:52:11 437.125/150
BEESAT 28 May 03:44:30 03:49:10 57° 259° (W) 03:53:53 436.000
O/OREOS (USA 219) 28 May 03:49:51 03:54:05 38° 106° (ESE) 03:58:20 437.305
YUBILEINY 28 May 03:50:35 03:57:02 22° 298° (WNW) 04:03:33 435.215
PCSat 28 May 03:53:11 03:58:19 41° 52° (NE) 04:03:25 145.827
Tancredo 1 28 May 03:53:52 03:55:07 12° 229° (SW) 03:56:22 437.200
KKS-1 28 May 03:55:51 03:58:46 17° 63° (ENE) 04:01:41 437.445
CUBESAT XI-V 28 May 04:03:46 04:07:34 25° 66° (ENE) 04:11:24 437.345
STARS 28 May 04:22:44 04:25:05 14° 62° (ENE) 04:27:26 437.465
ITAMSAT 1 28 May 04:47:30 04:52:44 83° 104° (ESE) 04:57:58 435.822/435.867
AO-85 28 May 04:49:14 04:53:22 65° 121° (ESE) 04:57:19 145.980
MOZHAYETS 4 28 May 04:50:49 04:54:26 22° 267° (W) 04:58:04
ITUPSAT 1 28 May 04:52:39 04:54:58 13° 270° (W) 04:57:17 437.325
BEESAT 3 28 May 04:56:11 04:59:26 25° 114° (ESE) 05:02:43 437.485
AO-7 28 May 04:57:52 05:06:15 74° 106° (ESE) 05:14:37 .
Gurwin Techsat 1B 28 May 05:16:04 05:17:10 11° 305° (NW) 05:18:16 435.225
O/OREOS (USA 219) 28 May 05:29:51 05:33:37 24° 304° (NW) 05:37:22 437.305
KKS-1 28 May 05:30:39 05:34:56 49° 260° (W) 05:39:15 437.445
PCSat 28 May 05:36:50 05:41:34 31° 250° (WSW) 05:46:17 145.827
CUBESAT XI-V 28 May 05:40:24 05:44:45 37° 263° (W) 05:49:07 437.345
RS-15 28 May 05:53:11 06:03:47 32° 337° (NNW) 06:14:25 29.354- 29.394
STARS 28 May 05:56:38 06:00:56 60° 258° (WSW) 06:05:15 437.465
SO-50 28 May 06:01:56 06:05:23 21° 41° (NE) 06:08:51 436.795
STRAND 1 28 May 06:09:47 06:11:41 12° 57° (ENE) 06:13:37 437.568
XW-2C 28 May 06:15:16 06:16:19 11° 89° (E) 06:17:22 145.795 - 145.815
DOVE 4 28 May 06:15:59 06:19:21 23° 95° (E) 06:22:47 437.250
BEESAT 2 28 May 06:16:35 06:20:30 66° 121° (ESE) 06:24:31 435.950
ITAMSAT 1 28 May 06:28:45 06:31:30 15° 302° (WNW) 06:34:16 435.822/435.867
AO-85 28 May 06:31:34 06:34:07 16° 319° (NW) 06:36:38 145.980
BEESAT 3 28 May 06:33:16 06:36:53 33° 312° (NW) 06:40:33 437.485
AO-7 28 May 06:51:33 06:58:18 29° 306° (NW) 07:05:03 .
LilacSat-2 28 May 06:53:19 06:56:51 33° 97° (E) 07:00:21 437.200
CUTE-I 28 May 06:55:21 07:00:06 31° 96° (E) 07:04:48 437.470
XW-2D 28 May 07:25:13 07:29:06 81° 102° (ESE) 07:32:56 145.860 - 145.880
CUTE 1.7 + AOD 2 28 May 07:30:14 07:32:05 12° 89° (E) 07:33:55 437.475
NO-84 28 May 07:30:54 07:33:35 16° 124° (SE) 07:36:15 435.350 FM
M-CUBED/EXP-1 PRIME 28 May 07:33:10 07:35:48 17° 61° (ENE) 07:38:20 437.505
XW-2B 28 May 07:33:14 07:37:06 84° 284° (WNW) 07:40:56 145.730 - 145.750
NUDT-PHONESAT 28 May 07:37:56 07:41:44 86° 101° (E) 07:45:30 437.300
XW-2A 28 May 07:41:41 07:42:50 11° 91° (E) 07:43:58 145.665 - 145.685
SO-50 28 May 07:41:45 07:46:12 58° 240° (WSW) 07:50:38 436.795
XW-2F 28 May 07:44:34 07:48:23 63° 285° (WNW) 07:52:09 145.980 - 146.000
STRAND 1 28 May 07:44:58 07:50:03 85° 76° (ENE) 07:55:12 437.568
XW-2C 28 May 07:47:04 07:50:51 55° 286° (WNW) 07:54:36 145.795 - 145.815
KAITUO 1B 28 May 07:49:04 07:52:51 68° 285° (WNW) 07:56:36 145.475/437.950
DOVE 4 28 May 07:53:26 07:57:05 30° 290° (WNW) 08:00:49 437.250
BEESAT 2 28 May 07:56:07 07:58:42 16° 320° (NW) 08:01:19 435.950
RS-15 28 May 08:11:26 08:21:32 28° 12° (NNE) 08:31:23 29.354- 29.394
SEEDS 28 May 08:14:37 08:18:07 25° 94° (E) 08:21:33 437.485
CUBEBUG 2 28 May 08:25:17 08:29:13 27° 95° (E) 08:33:12 437.445
LilacSat-2 28 May 08:28:07 08:30:54 19° 293° (WNW) 08:33:41 437.200
HO-68 28 May 08:28:07 08:35:11 55° 101° (E) 08:42:11 435.675
UWE-3 28 May 08:32:10 08:35:32 20° 92° (E) 08:38:56 435.000/436.395/437.385
CUTE-I 28 May 08:35:19 08:40:08 35° 293° (WNW) 08:44:57 437.470
Oscar 11 28 May 08:58:02 09:00:20 14° 90° (E) 09:02:36 .
CUTE 1.7 + AOD 2 28 May 09:04:05 09:08:18 59° 286° (WNW) 09:12:28 437.475
M-CUBED/EXP-1 PRIME 28 May 09:05:58 09:10:00 45° 255° (WSW) 09:13:45 437.505
NO-84 28 May 09:06:20 09:10:45 84° 321° (NW) 09:15:02 435.350 FM
AAUSAT CUBESAT 2 28 May 09:08:19 09:12:18 45° 98° (E) 09:16:15 437.432
TIGRISAT 28 May 09:10:35 09:12:44 14° 62° (ENE) 09:14:56 435.000
XW-2A 28 May 09:12:31 09:15:47 42° 287° (WNW) 09:19:04 145.665 - 145.685
PRISM 28 May 09:14:35 09:17:36 20° 66° (ENE) 09:20:37 437.425
AO-73 28 May 09:25:29 09:29:42 36° 97° (E) 09:33:55 145.935
STRAND 1 28 May 09:28:14 09:29:53 11° 272° (W) 09:31:33 437.568
FO-29 28 May 09:34:24 09:38:52 31° 65° (ENE) 09:43:33 435.910
ZACube-1 28 May 09:40:26 09:44:57 57° 100° (E) 09:49:28 437.345
UNISAT 6 28 May 09:41:01 09:44:44 29° 68° (ENE) 09:48:33 437.425
SEEDS 28 May 09:50:08 09:53:47 29° 291° (WNW) 09:57:24 437.485
CUBEBUG 2 28 May 10:01:43 10:05:49 33° 290° (WNW) 10:09:59 437.445
UWE-3 28 May 10:07:47 10:12:09 44° 289° (WNW) 10:16:35 435.000/436.395/437.385
HO-68 28 May 10:16:23 10:22:34 32° 300° (WNW) 10:28:42 435.675
EO-88 28 May 10:20:12 10:22:55 19° 94° (E) 10:25:36 145.990 - 145.960
RS-15 28 May 10:25:38 10:37:41 55° 44° (NE) 10:49:08 29.354- 29.394
Oscar 11 28 May 10:32:32 10:36:49 55° 287° (WNW) 10:41:02 .
TIGRISAT 28 May 10:44:40 10:48:54 62° 260° (W) 10:53:13 435.000
DELFI C3 28 May 10:44:47 10:48:40 56° 100° (E) 10:52:30 145.870
AAUSAT CUBESAT 2 28 May 10:44:48 10:47:24 16° 295° (WNW) 10:49:58 437.432
NO-84 28 May 10:45:20 10:48:51 23° 339° (NNW) 10:52:15 435.350 FM
QB50P2 28 May 10:47:27 10:49:02 12° 61° (ENE) 10:50:38 145.880/145.840
PRISM 28 May 10:48:49 10:52:38 36° 262° (W) 10:56:28 437.425
AO-73 28 May 11:02:05 11:05:44 24° 293° (WNW) 11:09:24 145.935
UNISAT 6 28 May 11:17:53 11:21:26 25° 265° (W) 11:25:05 437.425
ZACube-1 28 May 11:17:57 11:20:46 16° 297° (WNW) 11:23:36 437.345
FO-29 28 May 11:19:21 11:23:58 32° 265° (W) 11:28:46 435.910
AIST 2D 28 May 11:21:35 11:24:55 42° 73° (ENE) 11:28:18 435.315
EO-79 28 May 11:21:45 11:25:10 25° 67° (ENE) 11:28:35 145.935-145.965
AO-85 28 May 11:40:53 11:41:59 11° 36° (NE) 11:43:07 145.980
EO-88 28 May 11:53:25 11:56:37 28° 290° (WNW) 11:59:47 145.990 - 145.960
YUBILEINY 28 May 11:59:32 12:07:56 44° 73° (ENE) 12:16:15 435.215
NANOSAT C BR1 28 May 12:04:48 12:08:56 66° 74° (ENE) 12:13:07 145.865
POLYITAN 1 28 May 12:11:14 12:15:26 86° 76° (ENE) 12:19:40 437.675
DUCHIFAT 1 28 May 12:14:22 12:18:31 76° 74° (ENE) 12:22:42 145.980
QB50P2 28 May 12:20:04 12:24:15 70° 259° (WSW) 12:28:28 145.880/145.840
DELFI C3 28 May 12:21:17 12:22:58 12° 297° (WNW) 12:24:39 145.870
O/OREOS (USA 219) 28 May 12:21:30 12:23:01 11° 48° (NE) 12:24:32 437.305
BUGSAT 1 28 May 12:25:03 12:28:31 29° 69° (ENE) 12:32:01 437.445
NO-84 28 May 12:25:11 12:27:38 15° 360° (N) 12:30:00 435.350 FM
LO-87 28 May 12:29:28 12:33:02 79° 284° (WNW) 12:36:35 145.935 - 145.965
RS-15 28 May 12:38:40 12:50:11 53° 249° (WSW) 13:01:09 29.354- 29.394
ESTCUBE 1 28 May 12:41:51 12:46:21 69° 102° (ESE) 12:50:49 437.505/2401.250
AIST 2D 28 May 12:56:59 12:58:22 12° 270° (W) 12:59:45 435.315
EO-79 28 May 12:57:08 13:00:49 29° 264° (W) 13:04:30 145.935-145.965
SPROUT 28 May 13:07:26 13:11:20 33° 97° (E) 13:15:13 437.525
BEESAT 3 28 May 13:11:40 13:14:55 23° 44° (NE) 13:18:08 437.485
Gurwin Techsat 1B 28 May 13:16:08 13:20:34 28° 65° (ENE) 13:25:00 435.225
AO-85 28 May 13:19:04 13:23:05 70° 55° (NE) 13:27:19 145.980
Oscar 19 28 May 13:21:11 13:26:09 48° 70° (ENE) 13:31:08 437.125/150
50 SAT 28 May 13:28:21 13:31:12 25° 96° (E) 13:34:01 437.505
VELOX 1 28 May 13:28:40 13:32:59 55° 101° (E) 13:37:17 145.980
NANOSAT C BR1 28 May 13:44:00 13:45:05 11° 271° (W) 13:46:10 145.865
UKube-1 28 May 13:46:08 13:49:21 20° 94° (E) 13:52:32 .
YUBILEINY 28 May 13:56:32 14:04:40 43° 273° (W) 14:12:47 435.215
DX 1 28 May 13:57:32 14:01:36 38° 99° (E) 14:05:38 434.975-435.025
O/OREOS (USA 219) 28 May 13:58:38 14:03:11 86° 69° (ENE) 14:07:39 437.305
BUGSAT 1 28 May 14:00:45 14:03:54 22° 265° (W) 14:07:04 437.445
NO-84 28 May 14:03:09 14:06:24 23° 21° (NNE) 14:09:27 435.350 FM
AO-7 28 May 14:07:30 14:14:00 27° 53° (NE) 14:20:30 .
ESTCUBE 1 28 May 14:20:23 14:22:35 14° 299° (WNW) 14:24:46 437.505/2401.250
ITAMSAT 1 28 May 14:29:02 14:32:37 19° 61° (ENE) 14:36:13 435.822/435.867
BEESAT 2 28 May 14:33:21 14:37:21 52° 53° (NE) 14:41:17 435.950
SPROUT 28 May 14:43:42 14:47:04 23° 293° (WNW) 14:50:25 437.525
BEESAT 3 28 May 14:48:53 14:52:39 39° 243° (WSW) 14:56:21 437.485
Gurwin Techsat 1B 28 May 14:55:19 15:00:18 41° 262° (W) 15:05:19 435.225
50 SAT 28 May 15:01:28 15:03:54 19° 292° (WNW) 15:06:19 437.505
AO-85 28 May 15:01:32 15:02:59 12° 250° (WSW) 15:04:28 145.980
Oscar 19 28 May 15:01:42 15:05:41 22° 267° (W) 15:09:42 437.125/150
VELOX 1 28 May 15:06:22 15:09:00 16° 297° (WNW) 15:11:36 145.980
ITUPSAT 1 28 May 15:12:39 15:15:38 16° 91° (E) 15:18:36 437.325
UKube-1 28 May 15:21:30 15:25:29 37° 291° (WNW) 15:29:26 .
DX 1 28 May 15:34:18 15:37:31 21° 295° (WNW) 15:40:44 434.975-435.025
NO-84 28 May 15:40:33 15:44:23 76° 223° (SW) 15:47:52 435.350 FM
BEESAT 28 May 15:43:41 15:48:01 33° 97° (E) 15:52:20 436.000
AO-7 28 May 15:57:39 16:05:56 79° 253° (WSW) 16:14:18 .
ITAMSAT 1 28 May 16:06:32 16:11:37 59° 258° (WSW) 16:16:45 435.822/435.867
BEESAT 2 28 May 16:12:16 16:14:40 15° 250° (WSW) 16:17:04 435.950
MOZHAYETS 4 28 May 16:43:27 16:48:07 79° 103° (ESE) 16:52:46
ITUPSAT 1 28 May 16:49:05 16:53:49 57° 288° (WNW) 16:58:32 437.325
KKS-1 28 May 17:20:41 17:24:31 28° 96° (E) 17:28:19 437.445
BEESAT 28 May 17:21:36 17:25:41 28° 294° (WNW) 17:29:45 436.000
DOVE 4 28 May 17:22:17 17:26:06 28° 69° (ENE) 17:29:47 437.250
CUBESAT XI-V 28 May 17:35:31 17:40:03 50° 99° (E) 17:44:32 437.345
LilacSat-2 28 May 17:36:30 17:39:19 20° 67° (ENE) 17:42:09 437.200
STARS 28 May 17:45:26 17:48:51 22° 94° (E) 17:52:16 437.465
AO-7 28 May 17:55:23 17:59:56 16° 272° (W) 18:04:31 .
XW-2D 28 May 18:07:03 18:10:39 42° 72° (ENE) 18:14:18 145.860 - 145.880
XW-2B 28 May 18:14:57 18:18:39 50° 74° (ENE) 18:22:24 145.730 - 145.750
NUDT-PHONESAT 28 May 18:17:49 18:21:20 41° 72° (ENE) 18:24:54 437.300
CUTE-I 28 May 18:17:56 18:23:06 56° 71° (ENE) 18:28:18 437.470
MOZHAYETS 4 28 May 18:22:40 18:24:37 13° 300° (WNW) 18:26:34
CUTE 1.7 + AOD 2 28 May 18:24:44 18:26:02 11° 61° (ENE) 18:27:20 437.475
XW-2F 28 May 18:25:46 18:29:32 67° 75° (ENE) 18:33:22 145.980 - 146.000
XW-2C 28 May 18:28:37 18:32:25 77° 78° (ENE) 18:36:17 145.795 - 145.815
KAITUO 1B 28 May 18:29:26 18:33:08 60° 75° (ENE) 18:36:54 145.475/437.950
PCSat 28 May 18:36:13 18:40:49 29° 109° (ESE) 18:45:28 145.827
Tancredo 1 28 May 18:51:47 18:52:34 11° 131° (SE) 18:53:21 437.200
KKS-1 28 May 18:57:11 19:01:02 29° 292° (WNW) 19:04:51 437.445
HO-68 28 May 18:57:32 19:04:15 45° 65° (ENE) 19:11:01 435.675
DOVE 4 28 May 18:59:49 19:03:45 28° 264° (W) 19:07:31 437.250
SEEDS 28 May 19:07:21 19:10:29 20° 66° (ENE) 19:13:37 437.485
LilacSat-2 28 May 19:09:56 19:13:23 31° 264° (W) 19:16:53 437.200
CUBESAT XI-V 28 May 19:13:52 19:17:02 18° 296° (WNW) 19:20:11 437.345
STARS 28 May 19:21:16 19:25:17 36° 291° (WNW) 19:29:17 437.465
CUBEBUG 2 28 May 19:24:45 19:28:02 23° 66° (ENE) 19:31:24 437.445
UWE-3 28 May 19:30:43 19:33:25 17° 64° (ENE) 19:36:11 435.000/436.395/437.385
XW-2D 28 May 19:42:57 19:45:03 14° 269° (W) 19:47:10 145.860 - 145.880
XW-2A 28 May 19:44:08 19:47:28 66° 75° (ENE) 19:50:50 145.665 - 145.685
ISS 28 May 19:44:10 19:46:52 24° 136° (SE) 19:49:35 437.550
XW-2B 28 May 19:51:40 19:53:09 12° 270° (W) 19:54:38 145.730 - 145.750
NUDT-PHONESAT 28 May 19:53:32 19:55:27 14° 269° (W) 19:57:23 437.300
Oscar 11 28 May 19:54:19 19:56:21 13° 62° (ENE) 19:58:24 .
STRAND 1 28 May 19:54:56 19:59:17 27° 95° (E) 20:03:37 437.568
CUTE 1.7 + AOD 2 28 May 19:56:57 20:01:14 77° 259° (W) 20:05:33 437.475
AAUSAT CUBESAT 2 28 May 19:59:03 20:02:49 34° 70° (ENE) 20:06:36 437.432
CUTE-I 28 May 19:59:45 20:03:30 19° 268° (W) 20:07:16 437.470
PCSat 28 May 20:18:52 20:24:02 43° 308° (NW) 20:29:14 145.827
AO-73 28 May 20:21:54 20:25:36 29° 68° (ENE) 20:29:23 145.935
Tancredo 1 28 May 20:24:47 20:27:51 87° 320° (NW) 20:30:57 437.200
ZACube-1 28 May 20:36:56 20:40:59 47° 72° (ENE) 20:45:10 437.345
SEEDS 28 May 20:41:58 20:45:55 37° 263° (W) 20:49:54 437.485
HO-68 28 May 20:45:30 20:52:03 38° 263° (W) 20:58:40 435.675
CUBEBUG 2 28 May 21:00:46 21:04:30 32° 264° (W) 21:08:20 437.445
EO-88 28 May 21:00:48 21:01:39 11° 63° (ENE) 21:02:29 145.990 - 145.960
UWE-3 28 May 21:05:26 21:09:29 47° 261° (W) 21:13:40 435.000/436.395/437.385
ISS 28 May 21:19:59 21:23:11 48° 332° (NNW) 21:26:24 437.550
Oscar 11 28 May 21:27:37 21:31:55 66° 259° (W) 21:36:17 .
DELFI C3 28 May 21:30:50 21:34:28 35° 71° (ENE) 21:38:08 145.870
STRAND 1 28 May 21:33:47 21:38:33 39° 292° (WNW) 21:43:17 437.568
AAUSAT CUBESAT 2 28 May 21:35:08 21:38:20 21° 267° (W) 21:41:33 437.432
SO-50 28 May 21:56:45 22:00:55 35° 116° (ESE) 22:05:02 436.795
AO-73 28 May 21:58:18 22:01:49 25° 266° (W) 22:05:26 145.935
Tancredo 1 28 May 22:01:30 22:03:56 21° 345° (NNW) 22:06:24 437.200
PCSat 28 May 22:08:00 22:08:55 10° 330° (NNW) 22:09:51 145.827
ZACube-1 28 May 22:14:57 22:17:33 16° 269° (W) 22:20:12 437.345
M-CUBED/EXP-1 PRIME 28 May 22:17:49 22:21:06 72° 289° (WNW) 22:24:20 437.505
FO-29 28 May 22:24:50 22:30:41 32° 96° (E) 22:37:02 435.910
PRISM 28 May 22:29:10 22:32:35 26° 96° (E) 22:35:59 437.425
EO-88 28 May 22:31:13 22:34:49 58° 260° (W) 22:38:28 145.990 - 145.960
TIGRISAT 28 May 22:35:10 22:39:03 26° 95° (E) 22:42:58 435.000
ISS 28 May 22:57:47 23:00:15 19° 352° (N) 23:02:44 437.550
LO-87 28 May 23:06:11 23:09:33 43° 73° (ENE) 23:12:56 145.935 - 145.965
DELFI C3 28 May 23:06:34 23:09:21 18° 267° (W) 23:12:09 145.870
UNISAT 6 28 May 23:07:10 23:11:46 60° 101° (E) 23:16:23 437.425
SO-50 28 May 23:37:19 23:41:23 31° 314° (NW) 23:45:27 436.795
Tancredo 1 28 May 23:38:22 23:40:29 17° 6° (N) 23:42:36 437.200
ESTCUBE 1 28 May 23:41:47 23:46:18 69° 75° (ENE) 23:50:51 437.505/2401.250
POLYITAN 1 28 May 23:56:40 23:58:44 13° 90° (E) 00:00:48 437.675
DUCHIFAT 1 28 May 23:59:38 00:00:53 11° 89° (E) 00:02:09 145.980
SPROUT 29 May 00:01:39 00:05:17 29° 69° (ENE) 00:08:56 437.525
50 SAT 29 May 00:02:52 00:04:18 12° 65° (ENE) 00:05:44 437.505
PRISM 29 May 00:04:24 00:07:47 26° 292° (WNW) 00:11:11 437.425
QB50P2 29 May 00:04:47 00:07:42 18° 92° (E) 00:10:37 145.880/145.840
FO-29 29 May 00:09:34 00:15:49 51° 290° (WNW) 00:22:49 435.910
TIGRISAT 29 May 00:11:36 00:15:45 34° 291° (WNW) 00:19:56 435.000
AIST 2D 29 May 00:18:38 00:22:06 45° 99° (E) 00:25:31 435.315
VELOX 1 29 May 00:26:26 00:30:43 54° 73° (ENE) 00:35:02 145.980
ISS 29 May 00:34:56 00:37:35 22° 13° (NNE) 00:40:12 437.550
EO-79 29 May 00:40:08 00:44:09 39° 98° (E) 00:48:08 145.935-145.965
UKube-1 29 May 00:41:35 00:44:45 20° 65° (ENE) 00:47:55 .
LO-87 29 May 00:41:58 00:43:13 12° 269° (W) 00:44:30 145.935 - 145.965
UNISAT 6 29 May 00:45:11 00:48:00 16° 297° (WNW) 00:50:50 437.425
RS-15 29 May 00:52:06 01:01:28 28° 101° (E) 01:10:59 29.354- 29.394
DX 1 29 May 00:53:42 00:57:43 38° 70° (ENE) 01:01:45 434.975-435.025
YUBILEINY 29 May 01:01:33 01:09:46 49° 88° (E) 01:18:03 435.215
Tancredo 1 29 May 01:13:56 01:16:51 37° 25° (NNE) 01:19:44 437.200
ESTCUBE 1 29 May 01:21:49 01:23:34 12° 271° (W) 01:25:20 437.505/2401.250
NANOSAT C BR1 29 May 01:23:30 01:27:45 75° 285° (WNW) 01:32:00 145.865
POLYITAN 1 29 May 01:30:39 01:34:52 57° 287° (WNW) 01:39:04 437.675
DUCHIFAT 1 29 May 01:32:46 01:36:59 66° 285° (WNW) 01:41:11 145.980
Oscar 19 29 May 01:33:09 01:36:05 15° 90° (E) 01:39:00 437.125/150
50 SAT 29 May 01:33:29 01:36:47 42° 261° (W) 01:40:06 437.505
SPROUT 29 May 01:37:38 01:41:09 25° 265° (W) 01:44:42 437.525
QB50P2 29 May 01:39:38 01:43:40 42° 289° (WNW) 01:47:42 145.880/145.840
BUGSAT 1 29 May 01:40:12 01:44:11 44° 99° (E) 01:48:12 437.445
AIST 2D 29 May 01:53:25 01:54:53 12° 295° (WNW) 01:56:22 435.315
